Wind_Speed
13 5 12 20 16 18 13 15 16 20 8 9 15 17 18 24 19 23 31 34 34 38 37 34 37 36 35 38 41 40 39 37 36 38 38 37 34 32 31 29 28 26 23 20
4 16 19 9 11 9 8 12 17 16 8 9 11 13 12 10 20 27 30 32 38 36 26 27 34 37 37 40 42 41 40 37 38 40 39 36 34 34 31 30 30 28 25 21
19 8 18 11 11 12 18 13 19 17 12 5 4 7 12 12 27 34 37 38 40 37 27 25 33 37 36 39 43 42 40 37 38 40 39 38 35 34 35 35 34 31 28 24
17 19 18 15 15 9 21 9 10 11 7 9 9 7 8 7 9 10 26 34 40 30 21 27 33 36 36 37 40 40 40 38 38 40 41 44 44 43 41 37 34 32 30 27
7 4 6 13 20 10 15 5 4 4 6 6 7 7 7 11 9 12 11 30 38 17 16 25 29 35 33 33 37 40 40 39 39 40 42 44 44 41 36 35 35 34 31 27
17 0 3 4 3 1 4 1 4 3 2 8 12 12 8 8 9 6 8 25 30 19 13 16 23 26 30 32 35 39 39 39 40 41 41 44 43 43 41 41 38 35 32 29
6 19 4 5 2 1 3 4 3 3 2 11 12 13 17 5 8 10 11 31 11 13 13 16 21 27 32 34 36 38 40 40 41 42 43 44 43 43 44 43 40 37 34 31
6 6 17 9 15 6 8 9 6 7 5 17 5 8 6 9 14 24 28 36 15 16 16 17 21 24 30 33 35 37 40 41 42 42 42 43 43 43 45 46 43 38 35 31
7 8 5 5 2 8 5 7 3 3 1 4 11 11 6 7 11 11 21 13 16 16 17 17 20 24 27 30 31 34 39 41 42 41 41 42 43 44 47 47 43 39 35 32
4 9 6 2 4 3 3 1 2 2 2 8 21 10 15 7 17 11 8 10 17 16 16 16 17 23 26 27 28 32 38 42 42 42 41 41 41 43 47 47 44 41 36 33
5 6 3 7 9 10 3 4 5 2 5 7 14 12 3 5 6 9 10 14 14 11 14 15 15 21 23 23 26 33 38 42 45 45 43 42 41 43 46 47 43 40 36 33
4 1 5 14 4 1 8 11 11 9 11 4 6 26 7 4 4 8 7 13 13 12 13 15 16 18 19 26 31 35 38 42 46 46 44 43 43 42 45 45 43 40 36 32
5 2 4 12 11 3 6 7 12 11 8 16 18 23 8 21 19 12 11 14 16 15 19 20 24 30 34 35 37 39 40 42 44 46 46 45 46 46 46 44 41 39 35 31
3 10 12 16 15 7 9 14 13 15 11 25 22 31 34 28 23 23 33 31 20 27 27 23 21 29 33 37 38 39 41 41 43 45 46 47 47 47 47 41 40 38 34 31
5 10 18 27 31 31 30 29 27 13 21 22 27 25 28 34 18 24 31 29 17 28 34 38 38 37 38 39 39 41 42 43 43 43 45 48 49 48 43 37 40 37 33 29
14 9 16 22 27 28 29 28 26 33 33 29 30 31 35 33 42 34 36 42 26 35 38 35 34 32 28 31 33 36 42 45 43 43 44 47 47 46 39 38 39 36 33 29
7 8 8 14 22 23 19 32 36 34 31 35 30 41 40 29 33 32 42 41 34 34 40 32 31 37 29 22 21 25 33 39 39 41 42 45 46 42 37 38 38 35 31 28
11 16 11 14 11 20 20 21 27 36 37 35 33 34 31 37 47 43 37 41 32 35 41 45 37 28 24 20 19 20 27 34 38 40 43 45 44 39 38 41 38 34 30 26
23 20 13 12 17 22 7 19 23 23 34 33 25 28 33 40 43 35 46 47 37 46 47 43 37 27 25 20 17 19 25 32 35 39 42 44 41 40 40 42 38 33 28 24
28 25 21 18 15 19 16 26 28 20 18 14 21 26 25 22 14 19 49 35 30 31 32 32 30 27 23 19 19 19 24 29 34 37 39 39 38 38 41 40 37 32 26 26
7 15 24 22 19 15 8 9 5 14 18 19 25 24 18 12 15 30 32 31 30 28 24 28 24 24 20 21 21 23 25 30 33 36 37 37 37 37 41 39 35 30 28 25
11 12 13 13 17 19 15 9 11 14 30 24 26 30 31 33 33 30 25 25 25 25 23 23 20 22 22 22 24 27 30 30 34 37 37 38 38 43 42 37 33 31 26 25
5 3 6 5 6 11 14 13 26 27 16 29 34 40 33 33 34 29 29 26 23 25 26 27 24 27 32 30 31 33 34 35 37 38 38 38 41 44 41 37 35 29 27 25
10 21 13 13 6 24 40 46 28 22 26 25 24 27 30 31 36 40 37 37 33 34 35 35 35 35 32 33 36 37 37 38 38 38 39 42 47 45 40 37 33 30 28 24
13 20 17 24 21 27 29 26 34 31 33 35 36 33 31 35 38 35 37 36 34 36 37 35 38 37 38 35 36 38 40 40 41 40 42 48 48 43 41 35 33 32 26 20
14 17 14 20 25 24 30 40 37 34 32 32 35 38 34 31 34 37 35 35 34 39 39 43 41 35 35 39 37 41 43 42 45 43 48 53 49 45 40 38 33 28 22 19
Wind_Direction
189 184 215 221 214 231 256 267 270 270 257 177 231 240 252 262 253 256 265 264 261 261 265 253 243 226 226 225 226 228 227 226 221 221 222 225 227 228 231 233 237 239 244 250
218 224 229 244 252 263 272 271 266 277 294 211 249 253 254 264 268 259 258 268 266 265 259 247 233 222 222 224 223 225 230 228 227 227 228 230 230 230 234 234 236 239 243 249
221 194 214 228 249 248 248 245 259 264 285 221 319 268 254 252 252 259 263 261 266 264 254 240 222 217 219 221 224 227 231 230 228 229 227 228 226 229 230 232 236 238 241 245
253 244 245 255 248 213 263 231 257 266 278 256 161 282 222 226 230 228 246 262 269 267 263 226 218 216 224 229 227 227 228 230 229 231 229 229 231 229 235 239 238 237 239 243
220 201 193 228 240 226 265 171 220 268 261 302 252 281 227 202 233 243 238 253 266 275 259 213 220 226 231 226 223 223 225 228 230 231 231 232 234 235 237 236 234 236 239 241
261 78 275 249 71 96 129 115 218 233 211 255 207 214 241 203 212 223 232 251 262 254 224 215 221 224 224 222 220 220 221 225 228 231 234 235 236 234 232 232 232 235 238 240
218 236 171 141 177 165 179 143 279 287 191 252 187 221 239 182 177 191 212 244 203 209 220 214 212 215 217 219 218 220 222 223 228 232 235 236 237 234 236 238 236 234 235 239
210 267 182 178 208 174 187 179 173 237 219 274 229 255 247 214 231 217 215 250 235 213 225 222 222 223 219 218 223 224 224 224 228 232 235 237 237 235 236 239 236 236 238 242
213 245 27 146 141 159 183 211 198 249 130 307 240 262 305 254 238 218 226 198 197 219 228 231 231 232 227 224 231 233 230 229 231 234 234 237 236 236 236 237 235 235 236 239
271 268 177 120 48 287 201 200 123 219 256 241 275 282 273 197 237 219 225 219 233 246 236 235 233 234 233 238 244 243 238 236 234 233 235 239 237 237 237 236 234 234 235 237
220 215 226 126 197 184 155 237 232 246 192 230 271 271 303 161 149 196 222 230 245 223 225 231 240 243 243 244 249 247 241 239 235 233 234 237 237 238 237 236 234 232 233 236
206 241 248 233 181 233 216 224 185 221 237 230 235 264 153 120 138 149 191 200 201 229 236 231 240 255 262 272 259 252 250 245 242 235 234 236 237 237 237 236 231 229 231 235
342 356 324 302 288 196 201 211 230 244 258 243 244 259 189 255 265 233 185 222 233 236 232 243 263 262 265 267 265 262 253 253 246 237 234 234 234 236 238 234 229 226 228 233
175 226 221 238 241 261 269 238 235 226 241 248 246 258 274 266 269 277 275 277 262 257 257 262 271 276 271 268 261 259 257 254 248 238 236 234 234 235 237 233 228 225 226 232
188 224 225 235 244 253 256 263 271 262 243 245 266 259 264 270 267 263 271 272 257 283 281 278 277 273 269 268 264 262 259 256 249 239 237 235 234 235 235 230 224 223 225 231
179 227 215 231 238 247 255 258 261 254 253 254 254 268 255 269 277 274 273 269 277 276 274 275 278 275 266 268 270 268 260 254 249 244 237 233 232 234 230 228 221 221 225 230
193 211 209 235 230 241 248 240 246 253 248 243 247 245 259 262 259 263 269 277 276 270 275 274 276 284 284 279 275 270 264 250 245 239 236 232 232 230 229 224 218 220 225 231
206 215 226 251 236 231 230 246 235 238 243 247 243 248 250 252 260 265 271 273 271 272 276 276 278 280 277 273 267 257 246 240 237 236 232 230 228 227 223 216 215 219 225 231
225 231 244 246 242 259 247 229 226 227 239 244 258 246 248 259 261 271 262 259 267 271 273 274 276 273 272 268 269 258 242 235 232 230 228 226 225 222 217 211 211 217 223 231
229 227 234 236 246 253 246 240 247 248 253 248 230 241 240 243 249 250 259 270 266 263 262 264 263 262 258 259 263 252 239 233 231 229 226 226 223 218 210 210 210 212 219 230
215 234 234 232 246 252 236 273 332 243 267 256 260 261 269 254 246 265 272 272 280 281 271 263 242 247 255 256 251 244 240 238 234 227 224 221 217 210 207 208 209 212 217 222
268 239 228 235 237 246 2 315 261 341 329 359 4 352 346 341 343 343 327 301 294 287 270 255 259 261 261 263 262 251 245 240 232 227 223 215 207 198 202 205 210 211 213 225
268 1 302 332 323 320 316 313 307 300 321 327 318 314 310 310 314 322 323 331 323 313 304 283 272 266 266 263 259 254 247 238 230 224 218 209 198 198 199 205 207 210 219 218
297 301 297 316 309 311 306 304 297 306 306 316 330 330 320 305 303 299 297 299 301 300 301 293 283 267 260 270 260 253 244 237 231 221 214 203 197 194 198 199 204 215 215 216
286 302 293 286 290 295 287 300 305 306 312 312 309 306 296 288 289 292 296 299 303 300 292 284 286 281 275 269 260 250 243 237 227 217 210 198 195 195 194 200 207 211 210 212
271 273 282 282 291 290 300 314 319 314 317 310 311 306 301 301 298 298 295 296 295 295 296 289 282 273 275 273 263 249 241 233 223 211 204 197 193 194 193 197 198 201 201 202
Height
1499 1504 1500 1489 1491 1487 1486 1487 1489 1475 1472 1481 1478 1473 1466 1460 1464 1462 1459 1455 1455 1452 1452 1454 1452 1456 1460 1463 1466 1468 1472 1476 1481 1483 1486 1490 1493 1496 1498 1501 1503 1506 1508 1509
1497 1491 1479 1482 1482 1483 1485 1487 1481 1468 1467 1473 1470 1467 1459 1457 1452 1451 1450 1447 1443 1441 1444 1444 1443 1447 1450 1453 1457 1462 1465 1469 1472 1475 1480 1484 1488 1490 1493 1495 1497 1499 1501 1504
1480 1469 1474 1479 1479 1482 1476 1482 1476 1475 1469 1471 1471 1471 1460 1450 1444 1441 1439 1435 1432 1430 1435 1435 1435 1438 1443 1447 1449 1453 1457 1462 1466 1469 1475 1478 1481 1483 1485 1487 1489 1491 1494 1497
1472 1468 1467 1473 1473 1477 1471 1466 1469 1470 1478 1481 1464 1470 1446 1440 1438 1434 1429 1426 1422 1423 1425 1426 1428 1431 1433 1437 1443 1448 1452 1455 1459 1462 1466 1468 1470 1470 1473 1479 1482 1484 1487 1490
1461 1464 1467 1468 1460 1468 1461 1465 1468 1469 1474 1473 1470 1478 1439 1432 1434 1426 1421 1418 1413 1416 1418 1419 1422 1424 1429 1433 1436 1441 1446 1450 1452 1454 1457 1460 1464 1467 1471 1473 1475 1478 1481 1484
1462 1464 1466 1462 1463 1462 1466 1467 1470 1470 1475 1483 1463 1464 1428 1429 1422 1416 1413 1411 1404 1409 1412 1415 1418 1421 1423 1426 1430 1434 1438 1441 1444 1446 1448 1451 1455 1460 1461 1463 1466 1470 1474 1477
1454 1457 1457 1460 1466 1466 1466 1468 1484 1492 1493 1461 1435 1444 1414 1408 1406 1405 1406 1401 1401 1404 1407 1408 1410 1412 1416 1418 1422 1426 1429 1431 1434 1437 1439 1442 1446 1452 1453 1456 1460 1463 1467 1469
1458 1453 1448 1448 1450 1454 1464 1462 1480 1484 1478 1432 1424 1430 1412 1395 1393 1391 1394 1388 1395 1399 1402 1403 1404 1407 1409 1411 1414 1417 1420 1423 1425 1428 1430 1434 1438 1442 1445 1447 1452 1457 1460 1464
1450 1442 1438 1440 1443 1445 1454 1464 1445 1456 1468 1468 1417 1403 1391 1388 1388 1384 1383 1386 1389 1392 1396 1398 1401 1402 1405 1407 1409 1411 1413 1416 1419 1422 1424 1426 1429 1431 1433 1439 1445 1450 1454 1457
1432 1441 1435 1443 1446 1446 1445 1445 1457 1458 1469 1466 1397 1411 1396 1390 1382 1383 1384 1383 1385 1389 1391 1394 1396 1396 1398 1403 1406 1407 1407 1409 1411 1413 1415 1418 1421 1423 1425 1431 1436 1442 1447 1450
1431 1436 1440 1443 1446 1439 1451 1448 1445 1439 1440 1439 1426 1394 1373 1372 1371 1377 1379 1380 1384 1386 1386 1388 1390 1392 1394 1396 1397 1397 1398 1399 1400 1402 1405 1409 1411 1414 1417 1421 1428 1433 1439 1443
1431 1435 1440 1423 1414 1419 1420 1421 1426 1430 1422 1430 1422 1375 1368 1371 1369 1372 1377 1378 1380 1380 1382 1384 1385 1387 1389 1390 1390 1390 1391 1390 1391 1394 1396 1398 1401 1404 1407 1413 1418 1425 1429 1434
1443 1449 1447 1435 1424 1424 1422 1417 1411 1409 1413 1411 1409 1382 1370 1364 1369 1370 1371 1372 1375 1376 1378 1379 1380 1380 1380 1381 1381 1381 1380 1381 1383 1385 1386 1388 1392 1394 1397 1403 1411 1417 1421 1425
1438 1440 1442 1432 1414 1405 1410 1408 1410 1410 1414 1396 1396 1378 1358 1364 1369 1366 1364 1365 1370 1369 1370 1372 1373 1373 1371 1371 1371 1372 1371 1372 1373 1376 1378 1379 1381 1387 1389 1397 1405 1410 1413 1416
1435 1426 1429 1422 1417 1408 1405 1405 1406 1414 1401 1400 1380 1381 1368 1345 1365 1356 1357 1357 1361 1361 1364 1363 1362 1362 1361 1360 1360 1360 1362 1362 1363 1366 1368 1370 1372 1377 1384 1392 1398 1403 1407 1411
1414 1413 1417 1411 1407 1404 1405 1402 1400 1389 1389 1388 1381 1375 1347 1351 1350 1347 1348 1346 1354 1351 1349 1349 1349 1349 1349 1349 1349 1350 1351 1351 1354 1357 1359 1363 1366 1372 1379 1386 1392 1397 1402 1404
1403 1404 1401 1390 1392 1397 1398 1386 1374 1373 1369 1362 1368 1342 1334 1346 1337 1332 1332 1336 1338 1337 1336 1339 1338 1338 1339 1339 1339 1339 1340 1342 1346 1350 1352 1356 1359 1365 1374 1382 1386 1391 1396 1399
1388 1391 1387 1368 1377 1366 1350 1354 1356 1347 1339 1338 1336 1331 1331 1320 1318 1329 1330 1325 1322 1323 1327 1325 1326 1327 1328 1328 1327 1326 1326 1329 1333 1337 1340 1344 1349 1357 1363 1370 1377 1384 1389 1393
1370 1370 1365 1360 1351 1336 1338 1333 1336 1331 1314 1317 1328 1320 1312 1316 1318 1318 1315 1312 1316 1316 1315 1314 1316 1317 1320 1319 1320 1322 1321 1323 1323 1325 1328 1332 1337 1344 1352 1361 1367 1375 1381 1386
1355 1353 1353 1347 1331 1323 1315 1316 1314 1310 1319 1312 1302 1298 1305 1305 1317 1304 1296 1302 1305 1305 1306 1305 1306 1309 1311 1310 1310 1312 1313 1317 1318 1319 1322 1329 1333 1337 1348 1357 1360 1365 1372 1378
1346 1346 1330 1321 1317 1313 1308 1307 1310 1323 1309 1303 1301 1296 1299 1303 1300 1297 1299 1298 1297 1295 1298 1298 1298 1301 1303 1304 1302 1303 1305 1306 1309 1312 1313 1317 1325 1332 1343 1349 1354 1358 1363 1367
1331 1321 1317 1319 1311 1307 1321 1313 1319 1327 1322 1317 1315 1312 1311 1310 1305 1303 1298 1295 1291 1292 1294 1294 1293 1297 1298 1299 1297 1297 1298 1300 1302 1303 1306 1310 1314 1321 1333 1343 1349 1352 1355 1360
1348 1348 1346 1336 1325 1319 1319 1329 1328 1327 1321 1321 1318 1311 1311 1311 1309 1308 1303 1294 1291 1292 1293 1292 1289 1288 1290 1292 1291 1289 1290 1294 1294 1297 1301 1306 1310 1318 1324 1333 1341 1347 1350 1352
1352 1344 1341 1343 1326 1324 1320 1313 1321 1315 1314 1311 1311 1311 1308 1306 1303 1296 1293 1285 1280 1287 1290 1287 1285 1282 1279 1282 1284 1282 1283 1285 1286 1289 1295 1299 1304 1309 1319 1325 1333 1340 1344 1348
1359 1349 1343 1331 1328 1320 1317 1321 1313 1303 1304 1304 1303 1300 1295 1299 1293 1288 1284 1276 1272 1273 1278 1276 1275 1274 1272 1270 1271 1270 1271 1274 1278 1279 1288 1294 1300 1304 1310 1321 1327 1333 1338 1342
1355 1347 1339 1324 1323 1322 1311 1305 1307 1307 1305 1305 1301 1291 1293 1291 1284 1280 1273 1267 1261 1263 1265 1265 1261 1259 1258 1261 1259 1260 1259 1262 1269 1269 1280 1286 1291 1299 1304 1311 1319 1326 1332 1335